Location: Birchabruch
(46.4167°N, 11.4833°E)
Time: 14:32:56
(UTC+00:00)

Daily predictions for brighter satellites

Satellite Brightness Start Highest point End
(mag) Time Altitude Azimuth Time Altitude Azimuth Time Altitude Azimuth
Meteor 1-14 Rocket 4.5 17:31:48 10° SSE 17:37:02 44° E 17:42:16 10° NNE
SKYMED 2 3.7 17:33:32 10° N 17:37:55 81° WNW 17:42:14 10° SSW
Okean-O 2.8 17:33:40 10° SSE 17:37:59 54° ENE 17:42:19 10° N
BREEZE-M DEB (TANK) 4.2 17:34:33 10° SW 17:38:07 53° SE 17:50:32 10° ENE
Cosmos 1470 Rocket 3.8 17:34:06 10° S 17:38:26 50° E 17:42:45 10° NNE
ERS-2 2.7 17:41:57 10° NNE 17:45:21 36° E 17:48:45 10° SSE
Meteor 1-18 Rocket 4.3 17:39:25 10° N 17:45:24 76° ENE 17:51:17 10° SSE
Meteor 2-12 Rocket 4.5 17:40:41 10° S 17:46:36 59° E 17:52:34 10° NNE
Lacrosse 4 Rocket 3.0 17:44:33 10° SSE 17:47:28 18° ESE 17:50:27 10° ENE
Abrixas rocket 2.0 17:46:24 10° WNW 17:48:49 48° N 17:50:54 13° ENE
Cosmos 2341 Rocket 4.4 17:43:46 10° SSE 17:49:34 40° E 17:55:21 10° NNE
Okean 1 3.4 17:45:33 10° N 17:49:37 89° WSW 17:53:39 10° S
Cosmos 2237 4.2 17:44:13 10° SSW 17:49:52 67° ESE 17:55:35 10° NNE
Helios 1A Rocket 3.2 17:46:12 10° SE 17:50:02 43° ENE 17:53:53 10° N
Cosmos 1703 Rocket 4.1 17:47:17 10° N 17:51:22 36° ENE 17:55:24 10° SE
CSL-04 Rocket 3.9 17:49:53 10° SE 17:55:15 53° ENE 18:00:35 10° N
ATLAS 5 CENTAUR R/B 4.4 17:42:52 10° WSW 17:55:57 42° NW 17:59:54 10° NNE
Cosmos 1844 Rocket 2.6 17:50:32 10° NNW 17:56:07 69° ENE 18:01:40 10° SE
Okean O Rocket 4.5 17:53:15 10° SW 17:56:41 23° W 18:00:08 10° NW
Cosmos 1536 4.4 17:55:38 10° ESE 17:57:56 15° E 18:00:16 10° NE
Cosmos 1666 3.4 17:55:39 10° SSE 17:58:53 29° E 18:02:08 10° NNE
CSL-04 Debris 4.2 17:53:42 10° SSE 17:59:02 61° ENE 18:04:27 10° N
Cosmos 1933 Rocket 3.6 17:54:53 10° S 17:59:08 55° E 18:03:26 10° NNE
Cosmos 1862 Rocket 4.2 17:58:43 10° NNW 18:03:09 62° W 18:07:33 10° S
SL-4 R/B 2.0 18:00:07 10° WNW 18:03:36 49° NNE 18:05:57 18° E
FALCON 9 DEB 4.4 18:01:22 10° NW 18:04:08 26° N 18:06:07 15° ENE
Gbstr 26 Del rocket 4.0 18:00:36 10° WNW 18:04:51 44° N 18:09:20 13° ENE
OBJECT-B 2.5 18:08:21 16° ENE 18:08:21 16° ENE 18:10:18 10° NNE
CZ-4 R/B 2.0 18:04:38 10° S 18:08:26 57° W 18:12:19 10° NNW
FALCON 9 DEB 4.4 18:06:16 10° NW 18:09:04 26° N 18:10:54 16° ENE
Aureole 2 Rocket 3.4 18:07:30 10° NW 18:09:49 33° WSW 18:12:05 10° S
Cosmos 2333 4.4 18:06:42 10° S 18:12:03 47° ESE 18:17:31 10° NE
Cosmos 2360 Rocket 2.2 18:07:28 10° SSW 18:13:06 85° ESE 18:18:49 10° NNE
Cosmos 1844 3.7 18:08:38 10° NNW 18:14:26 79° ENE 18:20:09 10° SSE
Meteor 1-5 Rocket 4.1 18:09:36 10° S 18:14:52 60° E 18:20:20 10° NNE
USA 305 4.3 18:11:16 10° WNW 18:15:03 29° N 18:17:56 15° ENE
SeaSat 1 2.6 18:11:03 10° NE 18:15:52 50° ESE 18:20:39 10° S
USA 234 3.8 18:11:09 11° ENE 18:16:55 35° SE 18:22:48 10° SSW
YAOGAN 1 3.3 18:13:23 10° S 18:17:38 57° W 18:21:55 10° NNW
Cosmos 1500 3.3 18:14:08 10° SSW 18:17:51 76° W 18:21:37 10° N
Cosmos 2278 Rocket 3.4 18:13:59 10° N 18:18:36 25° NE 18:21:01 19° E
Cosmos 2242 Rocket 3.5 18:14:28 10° N 18:18:59 79° E 18:23:26 10° SSE
Resurs 01 Rocket 3.5 18:21:45 14° NE 18:21:45 14° NE 18:23:46 10° NNE
SL-08 RB Rocket 3.6 18:17:20 10° SSE 18:21:51 80° ENE 18:26:27 10° N
Cosmos 1689 Rocket 2.5 18:19:36 10° N 18:22:28 62° WNW 18:25:18 10° SSW
USA 307 4.2 18:23:36 10° WNW 18:27:24 30° N 18:29:44 18° NE
ATLAS CENTAUR R/B 1.8 18:25:28 10° SW 18:29:00 51° NW 18:32:36 10° NNE
Okean 1-7 2.9 18:25:15 10° N 18:29:39 85° E 18:33:58 10° S
USA 306 4.2 18:26:10 10° NW 18:29:59 30° N 18:32:10 19° NE
Cosmos 2333 Rocket 2.3 18:24:40 10° S 18:30:10 52° ESE 18:35:42 10° NE
Meteor 2-4 Rocket 4.0 18:26:11 10° NNW 18:32:03 75° W 18:37:58 10° S
SJ 16-02 2.4 18:28:36 10° N 18:32:21 26° ENE 18:32:58 25° ENE
GP-B 3.1 18:29:31 10° S 18:33:57 83° W 18:38:25 10° N
FALCON 9 DEB 4.1 18:30:46 10° WNW 18:34:02 42° SW 18:35:54 21° SSE
SME Rocket 4.3 18:29:43 10° NNE 18:37:03 46° E 18:41:58 10° SSE
USA 308 4.2 18:34:19 10° NW 18:38:10 31° N 18:39:59 22° NE
Resurs 1-3 4.3 18:43:01 32° ENE 18:43:20 32° ENE 18:47:16 10° N
Cosmos 2322 Rocket 3.7 18:39:41 10° WSW 18:44:49 36° NW 18:50:00 10° NNE
H-2A R/B 3.8 18:40:38 10° SSW 18:45:35 35° W 18:50:34 10° NNW
BREEZE-M DEB (TANK) 2.6 18:45:00 10° WNW 18:47:31 55° N 18:49:07 33° ENE
NOSS 3-2 (A) 3.9 18:43:04 10° S 18:47:59 33° ESE 18:48:59 31° E
MetOp-A 4.0 18:45:53 10° SSE 18:51:14 83° ENE 18:56:38 10° NNW
Cosmos 1869 Rocket 3.4 18:49:28 10° S 18:53:49 88° ESE 18:58:15 10° N
Okean 3 3.3 18:53:47 10° N 18:58:03 85° E 19:00:22 27° S
Cosmos 2219 Rocket 2.0 18:53:23 10° SSW 18:58:57 77° ESE 19:04:35 10° NNE
FALCON 9 DEB 3.9 18:56:49 10° NW 18:59:29 37° N 18:59:29 37° N
DMSP B5D2-2 4.0 18:54:35 10° NNE 18:59:51 87° WNW 19:05:03 10° SSW
BREEZE-M DEB (TANK) 1.7 18:55:56 10° WSW 18:59:56 82° SSW 18:59:56 82° SSW
COSMOS 2428 2.6 18:55:03 10° SSW 19:00:40 67° ESE 19:06:19 10° NNE
Cosmos 1777 Rocket 4.2 18:57:35 10° NNW 19:02:48 69° WSW 19:06:53 17° S
SL-8 Rocket 4.1 18:57:43 10° SSW 19:03:57 76° W 19:10:11 10° N
CENTAUR R/B 3.9 19:03:25 10° S 19:04:50 17° SSE 19:04:50 17° SSE
Ariane Rocket 2.9 19:07:29 34° SSE 19:09:46 80° ENE 19:14:54 10° NNW
FALCON 9 DEB 4.2 19:07:25 10° NW 19:09:41 37° NNW 19:09:41 37° NNW
CZ-2C R/B 3.6 19:05:58 10° N 19:11:12 48° WNW 19:16:19 10° SW
SJ-6B 3.0 19:10:35 37° S 19:12:06 72° WSW 19:16:09 10° NNW
Meteor 1-23 Rocket 4.1 19:07:37 10° N 19:13:14 75° ENE 19:15:29 38° SSE
USA 81 4.5 19:14:14 43° ENE 19:14:14 43° ENE 19:18:22 10° NNE
USA 186 3.9 19:15:49 19° NW 19:15:49 19° NW 19:16:52 10° NNW
SPOT 3 Rocket 3.8 19:16:41 48° ENE 19:16:41 48° ENE 19:21:33 10° N
Cosmos 1066 Rocket 4.3 19:11:38 10° NNW 19:17:23 80° W 19:21:41 19° S
Cosmos 2366 rocket 4.3 19:13:59 10° SSW 19:20:17 71° W 19:26:40 10° N
Cosmos 2369 Rocket 4.4 19:19:10 10° NNE 19:20:45 11° NNE 19:20:50 11° NE
Meteor 1-11 Rocket 4.0 19:15:39 10° SSW 19:21:20 70° WNW 19:26:56 10° N
Cosmos 1378 3.6 19:19:29 10° NNW 19:23:01 59° W 19:23:01 59° W
MOS 1 4.3 19:21:36 28° S 19:24:43 80° WSW 19:30:26 10° NNW
Cosmos 2322 4.3 19:19:43 10° SW 19:25:21 57° WNW 19:31:00 10° NNE
Lacrosse 4 Rocket 2.1 19:21:21 10° SW 19:25:42 58° NW 19:28:07 25° NNE
SL-08 R/B 4.4 19:19:36 10° S 19:26:03 81° E 19:32:33 10° N
Cosmos 1238 Rocket 4.3 19:22:58 10° SSW 19:29:14 28° N 19:31:01 10° N
Meteor 2-20 4.3 19:21:27 10° N 19:27:36 90° ENE 19:30:23 35° S
Cosmos 2221 Rocket 3.6 19:26:46 10° N 19:30:56 76° NW 19:30:56 76° NW
ASTEX 1 3.8 19:28:15 10° N 19:33:05 61° W 19:37:53 10° SSW
NOSS 0 Rocket 4.1 19:27:24 10° SSW 19:39:45 - NNE 19:32:12 51° SSE
Cosmos 1536 3.8 19:30:06 10° SSW 19:33:57 46° WNW 19:37:49 10° N
OBJECT-B 3.1 19:41:24 24° WNW 19:41:24 24° WNW 19:43:12 10° NNW
SL-4 R/B 3.8 19:39:50 10° WNW 19:41:32 24° W 19:41:32 24° W
Cosmos 1727 Rocket 4.3 19:37:30 10° NNW 19:43:37 63° W 19:47:28 24° SSW
Cosmos 1821 Rocket 3.8 19:44:20 60° S 19:45:34 83° E 19:51:46 10° N
Gbstr 26 Del rocket 3.8 19:47:26 10° WNW 19:51:52 64° NNW 19:51:52 64° NNW
SeaSat 1 4.3 19:48:57 10° N 19:53:10 29° NW 19:57:22 10° WSW
Cosmos 1000 Rocket 4.4 19:47:11 10° N 19:53:32 88° W 19:54:04 76° S
USA 305 4.5 19:51:29 10° NW 19:54:02 33° NW 19:54:02 33° NW
Cosmos 2239 Rocket 4.4 19:57:32 75° NNE 19:57:32 75° NNE 20:03:18 10° N
Resurs 01 Rocket 3.0 19:59:18 34° NNW 19:59:18 34° NNW 20:01:51 10° NNW
USA 234 3.2 19:58:30 51° NE 20:00:17 79° NNW 20:06:50 10° WSW
Cosmos 2278 Rocket 2.4 19:57:34 10° NNW 20:02:55 65° W 20:02:55 65° W
USA 238 DEB 3.7 20:00:59 10° SW 20:06:33 67° SW 20:06:33 67° SW
USA 238 3.7 20:01:04 10° SW 20:06:34 66° SW 20:06:34 66° SW
ATLAS CENTAUR R/B 4.3 20:08:12 10° NW 20:08:45 10° NNW 20:09:19 10° NNW
Cosmos 2123 Rocket 4.3 20:02:31 10° N 20:07:27 56° N 20:07:27 56° N
SJ 16-02 3.1 20:06:58 10° NW 20:09:58 31° WNW 20:09:58 31° WNW
Cosmos 1943 Rocket 3.8 20:08:12 10° NNW 20:11:08 25° NNE 20:11:08 25° NNE
Cosmos 2333 Rocket 3.9 20:09:44 10° WSW 20:14:42 30° NW 20:19:44 10° N
NOSS 3-2 (A) 4.5 20:32:54 10° WSW 20:36:35 38° W 20:36:35 38° W
Cosmos 2219 Rocket 4.4 20:39:16 10° W 20:43:32 22° NW 20:47:51 10° N
Cosmos 2369 Rocket 4.4 21:00:57 10° NNW 21:02:38 19° N 21:02:38 19° N
